{"data":{"norad_id":55385,"intl_designator":"2023-013BG","name":"STARLINK-5556","alt_names":[],"object_type":"PAYLOAD","status":"ACTIVE","operator":null,"country":"US","launch_date":"2023-01-26","launch_site_code":"AFETR","launch_vehicle":null,"mission":null,"orbit_class":"UNKNOWN","rcs_meters":null,"size_class":null,"mass_kg":null,"dimensions":null,"purposes":["comms"],"wikipedia_slug":null,"has_3d_model":false,"image_url":null,"decayed_at":null,"tle_current":{"epoch":"2026-09-20T10:16:20.344800Z","epoch_age_seconds":102843,"freshness":"FRESH","line1":"1 55385U 23013BG  26263.42801325  .00000001  00000+0  95801-5 0  9997","line2":"2 55385  43.0055 298.5210 0001822 287.3722  72.6930 15.27578639201289","mean_motion":15.27578639,"eccentricity":0.0001822,"inclination_deg":43.0055,"raan_deg":298.521,"arg_perigee_deg":287.3722,"mean_anomaly_deg":72.693,"bstar":9.5801e-6,"rev_number":20128,"period_min":94.266832700847,"perigee_km":481.80306251707,"apogee_km":484.30328021552,"semimajor_km":6861.1901713663,"source":"CELESTRAK","updated_at":"2026-09-21T09:00:33.212734Z"}}}